Date String (YYYY-MM-DD hh:mm:ss) UTC,Instrument flags,absolute air pressure of the measurement (hPa),sample flow rate (lpm),inlet stack bypass flow (lpm),air temperature of the measurement (°C),ambient temperature measured by the external sensor (°C),aerosol sample conditioner tube jacket temperature (°C),OPC LED temperature (°C),internal box temperature (°C),relative humidity of the measurement (%),span deviation,mass concentration of particles derived from Lorenz-Mie calculation of OPC scattering (μg/m³),mass concentration of particles derived from Lorenz-Mie calculation of OPC scattering (μg/m³),mass concentration of particles derived from Lorenz-Mie calculation of OPC scattering (μg/m³)
DateTimeUTC,F1_M11,P_M11,Q1_M11,Q2_M11,T1_M11,T2_M11,T3_M11,T4_M11,T5_M11,U1_M11,ZSPAN_M11,X2_M11,X0_M11,X1_M11
2023-10-11 09:00:00,SystemResetWarning,0817.4,5.00,000.00,028.7,027.2,000.0,037.2,030.3,12.3,0000.0,0004.01,0008.06,0003.51
2023-10-11 09:01:00,SystemResetWarning,0817.4,5.00,000.00,028.7,027.3,000.0,037.2,030.4,12.3,0000.0,0004.06,0007.84,0003.55
2023-10-11 09:02:00,SystemResetWarning,0817.4,5.01,000.00,028.7,027.3,000.0,037.2,030.4,12.3,0000.0,0004.11,0008.13,0003.58
2023-10-11 09:03:00,SystemResetWarning,0817.5,5.01,000.00,028.8,027.4,000.0,037.2,030.4,12.2,0000.0,0004.16,0008.64,0003.64
2023-10-11 09:04:00,SystemResetWarning,0817.5,5.01,000.00,028.8,027.4,000.0,037.3,030.4,12.2,0000.0,0004.22,0009.05,0003.69
2023-10-11 09:05:00,SystemResetWarning,0817.4,5.00,000.00,028.8,027.5,000.0,037.3,030.5,12.2,0000.0,0004.24,0009.09,0003.73
2023-10-11 09:06:00,SystemResetWarning,0817.5,4.99,000.00,028.8,027.5,000.0,037.3,030.5,12.2,0000.0,0004.25,0009.01,0003.76
2023-10-11 09:07:00,SystemResetWarning,0817.5,5.00,000.00,028.9,027.5,000.0,037.3,030.5,12.2,0000.0,0004.23,0008.92,0003.77
2023-10-11 09:08:00,SystemResetWarning,0817.5,4.99,000.00,028.9,027.6,000.0,037.3,030.5,12.1,0000.0,0004.24,0009.01,0003.78
2023-10-11 09:09:00,SystemResetWarning,0817.5,5.00,000.00,028.9,027.6,000.0,037.3,030.6,12.1,0000.0,0004.22,0008.65,0003.78
2023-10-11 09:10:00,SystemResetWarning,0817.5,5.00,000.00,028.9,027.6,000.0,037.3,030.6,12.1,0000.0,0004.23,0009.02,0003.78
2023-10-11 09:11:00,SystemResetWarning,0817.5,5.00,000.00,028.9,027.6,000.0,037.3,030.6,12.2,0000.0,0004.23,0009.30,0003.80
2023-10-11 09:12:00,SystemResetWarning,0817.5,5.00,000.00,028.9,027.7,000.0,037.3,030.6,12.2,0000.0,0004.22,0009.32,0003.81
2023-10-11 09:13:00,SystemResetWarning,0817.5,5.00,000.00,029.0,027.7,000.0,037.3,030.6,12.2,0000.0,0004.23,0009.27,0003.82
2023-10-11 09:14:00,SystemResetWarning,0817.5,5.00,000.00,029.0,027.7,000.0,037.4,030.6,12.2,0000.0,0004.24,0009.05,0003.83
2023-10-11 09:15:00,SystemResetWarning,0817.5,5.00,000.00,029.0,027.7,000.0,037.4,030.7,12.2,0000.0,0004.23,0009.17,0003.84
2023-10-11 09:16:00,SystemResetWarning,0817.5,5.00,000.00,029.0,027.7,000.0,037.4,030.7,12.2,0000.0,0004.31,0009.37,0003.86
2023-10-11 09:17:00,SystemResetWarning,0817.5,5.00,000.00,029.0,027.7,000.0,037.4,030.7,12.2,0000.0,0004.30,0010.04,0003.87
2023-10-11 09:18:00,SystemResetWarning,0817.5,5.00,000.00,029.0,027.8,000.0,037.4,030.7,12.2,0000.0,0004.30,0010.06,0003.86
2023-10-11 09:19:00,SystemResetWarning,0817.5,5.00,000.00,029.0,027.8,000.0,037.4,030.7,12.2,0000.0,0004.30,0010.10,0003.86
2023-10-11 09:20:00,SystemResetWarning,0817.5,5.00,000.00,029.1,027.8,000.0,037.4,030.7,12.2,0000.0,0004.31,0010.19,0003.87
2023-10-11 09:21:00,SystemResetWarning,0817.4,5.00,000.00,029.1,027.8,000.0,037.4,030.7,12.2,0000.0,0004.33,0010.22,0003.88
2023-10-11 09:22:00,SystemResetWarning,0817.4,5.00,000.00,029.1,027.8,000.0,037.5,030.7,12.2,0000.0,0004.34,0010.53,0003.89
2023-10-11 09:23:00,SystemResetWarning,0817.4,4.99,000.00,029.1,027.8,000.0,037.5,030.7,12.2,0000.0,0004.35,0010.46,0003.90
2023-10-11 09:24:00,SystemResetWarning,0817.4,5.01,000.00,029.1,027.8,000.0,037.5,030.8,12.2,0000.0,0004.36,0010.72,0003.92
2023-10-11 09:25:00,SystemResetWarning,0817.4,5.01,000.00,029.1,027.8,000.0,037.5,030.8,12.2,0000.0,0004.34,0010.55,0003.92
2023-10-11 09:26:00,SystemResetWarning,0817.4,5.00,000.00,029.1,027.8,000.0,037.5,030.8,12.2,0000.0,0004.40,0010.02,0003.93
2023-10-11 09:27:00,SystemResetWarning,0817.4,5.00,000.00,029.1,027.8,000.0,037.5,030.7,12.2,0000.0,0004.38,0009.94,0003.93
2023-10-11 09:28:00,SystemResetWarning,0817.4,5.00,000.00,029.1,027.8,000.0,037.5,030.7,12.2,0000.0,0004.37,0009.07,0003.93
2023-10-11 09:29:00,SystemResetWarning,0817.4,4.99,000.00,029.1,027.8,000.0,037.5,030.8,12.2,0000.0,0004.38,0009.08,0003.95
2023-10-11 09:30:00,SystemResetWarning,0817.4,4.99,000.00,029.1,027.8,000.0,037.5,030.8,12.2,0000.0,0004.38,0009.02,0003.96
2023-10-11 09:31:00,SystemResetWarning,0817.4,5.00,000.00,029.2,027.8,000.0,037.5,030.8,12.2,0000.0,0004.36,0008.72,0003.96
2023-10-11 09:32:00,SystemResetWarning,0817.5,5.00,000.00,029.2,027.8,000.0,037.5,030.8,12.3,0000.0,0004.35,0008.18,0003.97
2023-10-11 09:33:00,SystemResetWarning,0817.5,5.01,000.00,029.1,027.8,000.0,037.5,030.8,12.4,0000.0,0004.37,0007.67,0003.97
2023-10-11 09:34:00,SystemResetWarning,0817.4,5.01,000.00,029.2,027.7,000.0,037.6,030.7,12.5,0000.0,0004.36,0007.68,0003.98
2023-10-11 09:35:00,SystemResetWarning,0817.4,5.00,000.00,029.2,027.7,000.0,037.6,030.8,12.5,0000.0,0004.35,0007.65,0003.97
2023-10-11 09:36:00,SystemResetWarning,0817.4,4.99,000.00,029.2,027.7,000.0,037.6,030.8,12.5,0000.0,0004.36,0008.65,0003.98
2023-10-11 09:37:00,SystemResetWarning,0817.3,4.99,000.00,029.2,027.7,000.0,037.6,030.8,12.3,0000.0,0004.31,0008.71,0003.97
2023-10-11 09:38:00,SystemResetWarning,0817.3,4.99,000.00,029.2,027.7,000.0,037.6,030.8,12.1,0000.0,0004.29,0008.64,0003.97
2023-10-11 09:39:00,SystemResetWarning,0817.3,5.00,000.00,029.2,027.8,000.0,037.6,030.8,12.1,0000.0,0004.31,0009.15,0003.98
2023-10-11 09:40:00,SystemResetWarning,0817.3,5.01,000.00,029.2,027.8,000.0,037.6,030.8,12.1,0000.0,0004.31,0009.30,0003.98
2023-10-11 09:41:00,SystemResetWarning,0817.4,5.00,000.00,029.2,027.8,000.0,037.6,030.8,12.1,0000.0,0004.31,0009.30,0003.98
2023-10-11 09:42:00,SystemResetWarning,0817.4,5.01,000.00,029.2,027.8,000.0,037.6,030.8,12.1,0000.0,0004.35,0009.39,0003.99
2023-10-11 09:43:00,SystemResetWarning,0817.4,5.00,000.00,029.2,027.8,000.0,037.6,030.8,12.1,0000.0,0004.37,0009.39,0004.00
2023-10-11 09:44:00,SystemResetWarning,0817.4,5.00,000.00,029.2,027.8,000.0,037.6,030.8,12.2,0000.0,0004.34,0009.42,0003.98
2023-10-11 09:45:00,SystemResetWarning,0817.4,5.00,000.00,029.2,027.8,000.0,037.7,030.8,12.2,0000.0,0004.35,0009.66,0003.98
2023-10-11 09:46:00,SystemResetWarning,0817.4,5.01,000.00,029.2,027.8,000.0,037.7,030.8,12.1,0000.0,0004.38,0009.49,0003.98
2023-10-11 09:47:00,SystemResetWarning,0817.3,5.00,000.00,029.2,027.8,000.0,037.7,030.8,12.3,0000.0,0004.38,0008.47,0003.98
2023-10-11 09:48:00,SystemResetWarning,0817.3,4.98,000.00,029.2,026.6,000.0,037.6,030.7,12.3,0000.0,0004.39,0008.39,0003.99
2023-10-11 09:49:00,SystemResetWarning,0817.2,5.01,000.00,029.1,024.8,000.0,037.5,030.5,12.3,0000.0,0004.39,0008.41,0003.99
2023-10-11 09:50:00,SystemResetWarning,0817.2,5.00,000.00,029.0,024.4,000.0,037.5,030.4,12.3,0000.0,0004.36,0008.02,0003.97
2023-10-11 09:51:00,SystemResetWarning,0817.2,5.00,000.00,028.9,024.6,000.0,037.5,030.1,12.4,0000.0,0004.37,0008.31,0003.97
2023-10-11 09:52:00,SystemResetWarning,0817.2,5.00,000.00,028.8,025.0,000.0,037.5,030.1,12.5,0000.0,0004.36,0008.33,0003.97
2023-10-11 09:53:00,SystemResetWarning,0817.3,5.00,000.00,028.7,025.3,000.0,037.4,030.1,12.7,0000.0,0004.34,0008.29,0003.96
2023-10-11 09:54:00,SystemResetWarning,0817.3,5.00,000.00,028.7,025.7,000.0,037.4,030.2,12.7,0000.0,0004.31,0008.37,0003.94
2023-10-11 09:55:00,SystemResetWarning,0817.3,5.00,000.00,028.6,026.0,000.0,037.4,030.2,12.7,0000.0,0004.32,0008.28,0003.95
2023-10-11 09:56:00,SystemResetWarning,0817.4,5.00,000.00,028.6,026.2,000.0,037.3,030.2,12.5,0000.0,0004.33,0008.04,0003.96
2023-10-11 09:57:00,SystemResetWarning,0817.4,5.00,000.00,028.6,026.4,000.0,037.3,030.2,12.5,0000.0,0004.29,0008.07,0003.95
2023-10-11 09:58:00,SystemResetWarning,0817.3,5.00,000.00,028.6,026.6,000.0,037.3,030.2,12.4,0000.0,0004.27,0007.99,0003.94
2023-10-11 09:59:00,SystemResetWarning,0817.3,5.00,000.00,028.6,026.8,000.0,037.3,030.2,12.4,0000.0,0004.27,0008.46,0003.94
